Location: New York
(40.7140°N, 74.0060°W)
Time: 13:52:00
(UTC-05:00)

ISS - Visible Passes

Search period start: 27 January 2015 00:00
Search period end: 06 February 2015 00:00
Orbit: 402 x 410 km, 51.6° (Epoch: 27 January)

Date Brightness Start Highest point End Pass type
(mag) Time Alt. Az. Time Alt. Az. Time Alt. Az.
27 Jan -2.8 05:38:41 42° SW 05:38:50 42° SW 05:41:58 10° SSE visible
28 Jan -0.7 04:49:22 19° SE 04:49:22 19° SE 04:50:23 10° SE visible
29 Jan -1.0 05:32:50 14° SSW 05:32:50 14° SSW 05:33:45 10° S visible
03 Feb -0.9 19:25:11 10° SW 19:26:12 18° SW 19:26:12 18° SW visible
04 Feb -2.3 18:33:41 10° SSW 18:36:33 29° SE 18:36:54 28° ESE visible
05 Feb -2.1 19:17:44 10° WSW 19:20:11 42° W 19:20:11 42° W visible
